Weather in Strelka

Russia / Krasnoyarsk Krai     58°04′42″N   93°01′28″E
temp.,
°C
wind,
m/s
gust,
m/s
humid.,
%
clouds,
%
prec.,
mm/h
press.,
hPa
HPBL,
m
28 november, sun
sun2801:00−9ssw41194100 0.8 1026897
04:00−8ssw41194100 1.0 10221025
07:00−7ssw41194100 2.3 10201032
10:00−6wsw41094100 0.8 1020894
13:00−6wsw499197 1.1 1021875
16:00−6wsw41094100 0.3 1022705
19:00−5wsw41294100 0.9 1023732
22:00−5wsw51394100 0.6 1023809
29 november, mon
mon2901:00−5wsw51393100 1.2 1024815
04:00−5wsw6149099 0.4 1026838
07:00−6w51292100 0.6 1028807
10:00−6w41092100 0.1 1030862
13:00−6wsw41091100 0.3 1030600
16:00−6sw3993100 0.1 1029500
19:00−6sw31095100 0.7 1028577
22:00−6sw41194100 0.8 1026623
30 november, tue
tue3001:00−6sw41190100 0.9 1025586
04:00−6sw4128897 0.0 1023580
07:00−7sw41384100 0.0 1021631
10:00−6sw51480100 0.0 1020746
13:00−6wsw51493100 0.3 1019791
16:00−5wsw51392100 0.6 1019795
19:00−6wsw51393100 1.4 1019780
22:00−6wsw61490100 0.3 1018770
1 december, wed
wed101:00−5wsw61691100 0.6 1018814
04:00−5w61588100 0.2 1020884
07:00−4wnw51194100 0.4 1023978
10:00−9nw31188100 0.2 1027537
13:00−9wnw2790100 0.2 1028377
16:00−10ene1197100 0.0 10299
19:00−10ese1397100 0.1 102870
22:00−8sse2697100 0.3 1026187
2 december, thu
thu201:00−7s31187100 0.3 1023325
04:00−7sw41382100 0.0 1021405
07:00−6sw41383100 0.0 1019525
10:00−6sw41285100 0.0 1019425
13:00−4sw41283100 0.0 1018591
16:00−5sw41282100 0.0 1017474
19:00−5wsw31183100 0.0 1017437
22:00−5sw31087100 0.0 1017341